Погода в Просеке

Россия / Нижегородская область     56°06′34″N   45°10′58″E
темп.,
°C
ветер,
м/с
пор.,
м/с
влажн.,
%
обл.,
%
осадки,
мм/ч
давл.,
гПа
погр.,
м
14 апреля, ср
ср1400:00+8ю367042 0.0 102864
03:00+7ю337149 0.0 102822
06:00+3ююв36885 0.0 102762
09:00+8ююв38966 0.0 1027146
12:00+13ююв48745 0.0 1026256
15:00+17ююв48585 0.0 1024823
18:00+14юв36740 0.0 102296
21:00+11ююв36825 0.0 102273
15 апреля, чт
чт1500:00+10ю33855 0.0 102127
03:00+9ю228521 0.0 102111
06:00+8ю22885 0.0 102013
09:00+14ю237441 0.0 1020298
12:00+17ю225899 0.0 1019937
15:00+18юз1147100 0.0 10181568
18:00+16с115590 0.0 101811
21:00+12св71281100 0.0 1020423
16 апреля, пт
пт1600:00+8св61183100 0.0 1021526
03:00+7св61283100 0.0 1023552
06:00+5св6128499 0.0 1024522
09:00+7всв6977100 0.0 1025597
12:00+10всв687296 0.0 1025887
15:00+11всв686381 0.0 10251044
18:00+10всв596237 0.0 1025499
21:00+6св512624 0.0 1027346
17 апреля, сб
сб1700:00+4св49705 0.0 1028224
03:00+2св39775 0.0 1028188
06:00+1св311775 0.0 1030272
09:00+7всв69505 0.0 1030655
12:00+11всв67374 0.0 10291230
15:00+12всв56354 0.0 10291510
18:00+10всв36480 0.0 1029174
21:00+6всв22610 0.0 103019
18 апреля, вс
вс1800:00+4св22700 0.0 103013
03:00+3св22785 0.0 103018
06:00+3св2680100 0.0 1031141
09:00+8св465858 0.0 1031585
12:00+11всв454698 0.0 10311468
15:00+12св464297 0.0 10301845
18:00+10всв485499 0.0 1031396
21:00+6всв387182 0.0 1032224